Regional Weather Roundup
Issued by NWS

Home | Current Version | Previous Version | Text Only | Print | Product List | Glossary Off
Versions: 1 2 3 4 5 6 7 8 9 10 11 12 13 14 15 16 17 18 19 20 21 22 23 24 25 26 27 28 29 30 31 32 33 34 35 36 37 38 39 40 41 42 43 44 45 46 47 48 49 50

000
ASUS43 KFSD 231510
RWRSD

WEATHER ROUNDUP FOR SOUTH DAKOTA
NATIONAL WEATHER SERVICE SIOUX FALLS SD
1000 AM CDT SAT AUG 23 2014

NOTE: "FAIR" INDICATES FEW OR NO CLOUDS BELOW 12,000 FEET WITH NO
SIGNIFICANT WEATHER AND/OR OBSTRUCTIONS TO VISIBILITY.


SDZ001>005-009-010-012>017-231600-
NORTHWEST AND NORTH CENTRAL SOUTH DAKOTA

CITY           SKY/WX    TMP DP  RH WIND       PRES   REMARKS
BUFFALO          N/A     60  60 100 E21G28    29.85F
FAITH            N/A     62  61  96 NE16      29.89F
MOBRIDGE       LGT RAIN  63  63 100 E16G24    29.89S
$$

SDZ012>016-024>037-041>051-057-063-072>074-231600-
SOUTHWEST AND SOUTH CENTRAL SOUTH DAKOTA

CITY           SKY/WX    TMP DP  RH WIND       PRES   REMARKS
RAPID CTY ARPT CLOUDY    66  62  87 NE9       29.87F
PIERRE         LGT RAIN  69  68  96 E20       29.81F
ELLSWORTH AFB  CLOUDY    65  63  94 E6        29.87F
PHILIP         HVY RAIN  67  65  93 E6        29.80F VSB 1
PINE RIDGE     CLOUDY    65  62  90 CALM      29.87F
WINNER         FAIR      73  67  81 SE20      29.83F
$$

SDZ004>011-016>023-039-040-231600-
NORTHEAST SOUTH DAKOTA

CITY           SKY/WX    TMP DP  RH WIND       PRES   REMARKS
ABERDEEN       LGT RAIN  65  65 100 NE14      29.93R
WATERTOWN      CLOUDY    69  65  86 E13G21    29.93R
SISSETON         N/A     69  69 100 E8        29.93F
$$

SDZ017-020-022-023-036>040-048>070-231600-
SOUTHEAST SOUTH DAKOTA

CITY           SKY/WX    TMP DP  RH WIND       PRES   REMARKS
SIOUX FALLS    CLOUDY    72  69  90 E13       29.92R
HURON          LGT RAIN  70  68  93 E3        29.88S
CHAMBERLAIN    CLOUDY    69  67  93 SE13G20   29.84F
MITCHELL       CLOUDY    72  69  90 SE10      29.89S
YANKTON        CLOUDY    70  68  94 SE10      29.90S
$$

ABBREVIATIONS USED IN REMARKS
   TC - TEMPERATURE IN CELSIUS
  WCI - WIND CHILL INDEX
   HX - HEAT INDEX
  VSB - VISIBILITY




USA.gov is the U.S. government's official web portal to all federal, state and local government web resources and services.